STARLINK-2389, 47808

Orbit data source: Space-Track

STARLINK-2389, 47808 is a payload satellite owned by SpaceX/Seattle (US) in LEO that was launched on Thu, 11 Mar 2021 UTC via an FALCON 9 launch vehicle from the Air Force Eastern Test Range (AFETR). Payload-class satellites include a variety of spacecraft equipped with specific instruments for various scientific and technological missions. These include communications satellites like Starlink; space stations such as the ISS; scientific satellites like the Hubble; Earth observation satellites from companies like Planet Labs, Umbra, and HawkEye 360; GPS; miniature CubeSats for education and research; and military/defense satellites.

Loading next visibility...
Identifier
47808, 2021-018X
Orbit
LEO
Country
Flag of USUS
Related business
Manufacturer
SpaceX/Seattle
Mission
Operational Commercial Communications
Bus & Motor
STARLINK, Unknown motor
Mass
260 kg wet, ~248 kg dry
Launch date (UTC)
2021-03-11 (5 years ago)
Launch vehicle
FALCON 9
Launch site
Air Force Eastern Test Range (AFETR)
Object type
Payload
Rocket body
Debris
Shape & HBR
Box + 1 Pan, 10.1 m
Radar Cross Section
13.562 m², Large (>1 m²)

Expand to show TLE details & history
Last TLE update: 17 hours ago

TLE from 17 hours ago
0 STARLINK-2389
1 47808U 21018X   25292.05246526  .00002922  00000-0  21499-3 0  9992
2 47808  53.0532 162.4508 0001521  97.1408 262.9754 15.06398070255377
Epoch: 2025-10-19T01:15Z
TLE epoch observation values (Epoch: 2025-10-19T01:15:32.998Z)
Latitude
-0.00002°
Longitude
115.78863°
Altitude
548.225 km
Speed
7.589 km/s
True Right ascension
10h 49m 48s
True Declination
0° 00' 00"
Sunlit
Object was in daylight at epoch
Visualization orbit readout
Latitude
Unknown
Longitude
Unknown
Altitude
Unknown
Speed
Unknown
Apparent Right ascension
Unknown
Apparent Declination
Unknown
Sunlit
N/A
Visualization observer readout
Local Sidereal Time
13:29:55
Azimuth
Unknown
Elevation
Unknown
Doppler factor
Unknown
Orbital elements
Apogee altitude
548.542 km
Perigee altitude
546.435 km
Semi-major axis
6,925.625 km
Eccentricity
0.00015
Inclination
53.0532°
RAAN
162.4508°
Arg. of periapsis
97.1408°
True anomaly
262.9581°
Mean anomaly
262.9754°
Eccentric anomaly
262.96675°
Mean motion
3.76578 °/min
Orbital period
95.6 mins
BSTAR
0.00021499
Loading maneuver chart data...
Computing Atmospheric mass density...

Documentation

Showing up to 5 results
|